SKG860 CYOO-CYKM

Flight info

Callsign SKG860
Flight time 0h 37m
Altitude 12000
Route DCT
Aircraft PC12/L-SGCD/S

Departure

Time 2026-05-05 20:10
Airport Oshawa Executive Airport (CYOO)

Arrival

Time 2026-05-05 20:47
Airport Kincardine Municipal Airport (CYKM)
Time Latitude Longitude Altitude Speed Heading
2026-05-05 20:03 43.92556 -78.90245 463 ft 0 kts 75°
2026-05-05 20:07 43.92541 -78.90205 463 ft 14 kts 174°
2026-05-05 20:07 43.92460 -78.90137 462 ft 19 kts 110°
2026-05-05 20:08 43.92408 -78.89944 460 ft 24 kts 114°
2026-05-05 20:08 43.92345 -78.89716 458 ft 27 kts 110°
2026-05-05 20:08 43.92275 -78.89463 459 ft 28 kts 106°
2026-05-05 20:08 43.92203 -78.89199 455 ft 31 kts 107°
2026-05-05 20:09 43.92111 -78.88949 452 ft 24 kts 186°
2026-05-05 20:09 43.92069 -78.89051 453 ft 12 kts 294°
2026-05-05 20:09 43.92139 -78.89267 455 ft 44 kts 293°
2026-05-05 20:09 43.92291 -78.89812 473 ft 74 kts 296°
2026-05-05 20:10 43.92489 -78.90581 618 ft 93 kts 294°
2026-05-05 20:10 43.92717 -78.91515 813 ft 114 kts 295°
2026-05-05 20:10 43.92894 -78.92679 1096 ft 136 kts 268°
2026-05-05 20:10 43.92838 -78.94039 1462 ft 146 kts 279°
2026-05-05 20:11 43.92965 -78.95447 1943 ft 149 kts 281°
2026-05-05 20:11 43.93120 -78.96867 2519 ft 149 kts 281°
2026-05-05 20:11 43.93282 -78.98292 2978 ft 151 kts 279°
2026-05-05 20:11 43.93447 -78.99739 3559 ft 151 kts 277°
2026-05-05 20:12 43.93610 -79.01168 4162 ft 148 kts 277°
2026-05-05 20:12 43.93768 -79.02560 4712 ft 147 kts 275°
2026-05-05 20:12 43.93928 -79.03954 5305 ft 143 kts 274°
2026-05-05 20:12 43.94079 -79.05274 5906 ft 137 kts 273°
2026-05-05 20:13 43.94225 -79.06557 6477 ft 133 kts 272°
2026-05-05 20:13 43.94368 -79.07825 6982 ft 132 kts 271°
2026-05-05 20:13 43.94511 -79.09092 7464 ft 133 kts 270°
2026-05-05 20:13 43.94654 -79.10345 7953 ft 132 kts 269°
2026-05-05 20:14 43.94796 -79.11598 8471 ft 132 kts 269°
2026-05-05 20:14 43.94938 -79.12856 8985 ft 131 kts 268°
2026-05-05 20:14 43.95077 -79.14094 9487 ft 131 kts 267°
2026-05-05 20:14 43.95219 -79.15346 9980 ft 131 kts 267°
2026-05-05 20:15 43.95359 -79.16592 10457 ft 131 kts 267°
2026-05-05 20:15 43.95499 -79.17832 10941 ft 131 kts 267°
2026-05-05 20:15 43.95640 -79.19089 11434 ft 131 kts 267°
2026-05-05 20:15 43.95782 -79.20346 11934 ft 132 kts 267°
2026-05-05 20:16 43.95927 -79.21709 12017 ft 153 kts 268°
2026-05-05 20:16 43.96098 -79.23246 12022 ft 171 kts 269°
2026-05-05 20:16 43.96292 -79.24938 12027 ft 182 kts 269°
2026-05-05 20:16 43.96496 -79.26728 12024 ft 191 kts 270°
2026-05-05 20:17 43.96702 -79.28557 12026 ft 197 kts 270°
2026-05-05 20:17 43.96915 -79.30457 12026 ft 200 kts 270°
2026-05-05 20:17 43.97127 -79.32357 12025 ft 202 kts 270°
2026-05-05 20:17 43.97345 -79.34312 12023 ft 204 kts 270°
2026-05-05 20:18 43.97561 -79.36258 12026 ft 205 kts 270°
2026-05-05 20:18 43.97779 -79.38227 12022 ft 206 kts 270°
2026-05-05 20:18 43.97995 -79.40176 12007 ft 206 kts 270°
2026-05-05 20:18 43.98212 -79.42145 12011 ft 206 kts 270°
2026-05-05 20:19 43.98430 -79.44116 12014 ft 206 kts 270°
2026-05-05 20:19 43.98647 -79.46088 12012 ft 206 kts 270°
2026-05-05 20:19 43.98861 -79.48040 12012 ft 207 kts 270°
2026-05-05 20:19 43.99078 -79.50021 12013 ft 207 kts 270°
2026-05-05 20:20 43.99296 -79.52008 12009 ft 207 kts 270°
2026-05-05 20:20 43.99513 -79.53987 12014 ft 207 kts 270°
2026-05-05 20:20 43.99726 -79.55945 12011 ft 207 kts 270°
2026-05-05 20:20 43.99943 -79.57924 12011 ft 206 kts 270°
2026-05-05 20:21 44.00158 -79.59903 12014 ft 206 kts 270°
2026-05-05 20:21 44.00368 -79.61847 12015 ft 206 kts 270°
2026-05-05 20:21 44.00582 -79.63821 12018 ft 205 kts 270°
2026-05-05 20:21 44.00796 -79.65789 12019 ft 204 kts 270°
2026-05-05 20:22 44.01004 -79.67718 12020 ft 205 kts 270°
2026-05-05 20:22 44.01215 -79.69677 12023 ft 205 kts 270°
2026-05-05 20:22 44.01426 -79.71642 12024 ft 204 kts 270°
2026-05-05 20:22 44.01635 -79.73579 12025 ft 204 kts 270°
2026-05-05 20:23 44.01846 -79.75544 12026 ft 205 kts 270°
2026-05-05 20:23 44.02056 -79.77505 12021 ft 205 kts 270°
2026-05-05 20:23 44.02263 -79.79440 12023 ft 204 kts 270°
2026-05-05 20:23 44.02472 -79.81392 12024 ft 204 kts 270°
2026-05-05 20:24 44.02681 -79.83352 12026 ft 204 kts 270°
2026-05-05 20:24 44.02886 -79.85280 12024 ft 203 kts 270°
2026-05-05 20:24 44.03094 -79.87229 12023 ft 203 kts 270°
2026-05-05 20:24 44.03300 -79.89173 12023 ft 203 kts 270°
2026-05-05 20:25 44.03503 -79.91093 12022 ft 202 kts 270°
2026-05-05 20:25 44.03709 -79.93036 12026 ft 202 kts 270°
2026-05-05 20:25 44.03914 -79.94979 12022 ft 203 kts 270°
2026-05-05 20:25 44.04117 -79.96904 12022 ft 203 kts 270°
2026-05-05 20:26 44.04322 -79.98847 12024 ft 202 kts 270°
2026-05-05 20:26 44.04525 -80.00783 12023 ft 202 kts 270°
2026-05-05 20:26 44.04725 -80.02693 12027 ft 202 kts 270°
2026-05-05 20:26 44.04929 -80.04644 12024 ft 203 kts 270°
2026-05-05 20:27 44.05130 -80.06575 12021 ft 204 kts 270°
2026-05-05 20:27 44.05335 -80.08537 12021 ft 205 kts 270°
2026-05-05 20:27 44.05540 -80.10504 12022 ft 206 kts 270°
2026-05-05 20:27 44.05746 -80.12485 12019 ft 207 kts 270°
2026-05-05 20:28 44.05950 -80.14448 12025 ft 207 kts 270°
2026-05-05 20:28 44.06157 -80.16436 12026 ft 207 kts 270°
2026-05-05 20:28 44.06363 -80.18425 12020 ft 206 kts 270°
2026-05-05 20:28 44.06563 -80.20369 12011 ft 205 kts 269°
2026-05-05 20:29 44.06765 -80.22341 12009 ft 204 kts 270°
2026-05-05 20:29 44.06968 -80.24295 12012 ft 204 kts 270°
2026-05-05 20:29 44.07170 -80.26249 12011 ft 203 kts 270°
2026-05-05 20:29 44.07370 -80.28196 12013 ft 203 kts 270°
2026-05-05 20:30 44.07566 -80.30117 12012 ft 202 kts 270°
2026-05-05 20:30 44.07765 -80.32062 12011 ft 202 kts 270°
2026-05-05 20:30 44.07963 -80.34003 12012 ft 202 kts 270°
2026-05-05 20:30 44.08158 -80.35921 12014 ft 202 kts 270°
2026-05-05 20:31 44.08356 -80.37864 12014 ft 202 kts 270°
2026-05-05 20:31 44.08487 -80.39149 12014 ft 202 kts 270°
2026-05-05 20:31 44.08747 -80.41722 12014 ft 202 kts 269°
2026-05-05 20:31 44.08880 -80.43036 12017 ft 202 kts 270°
2026-05-05 20:32 44.09075 -80.44959 12019 ft 202 kts 269°
2026-05-05 20:32 44.09272 -80.46909 12018 ft 203 kts 270°
2026-05-05 20:32 44.09466 -80.48834 12021 ft 202 kts 270°
2026-05-05 20:32 44.09661 -80.50777 12022 ft 202 kts 270°
2026-05-05 20:33 44.09854 -80.52702 12022 ft 202 kts 270°
2026-05-05 20:33 44.10050 -80.54653 12022 ft 202 kts 270°
2026-05-05 20:33 44.10241 -80.56567 12024 ft 202 kts 270°
2026-05-05 20:33 44.10435 -80.58508 12022 ft 202 kts 270°
2026-05-05 20:34 44.10629 -80.60463 12024 ft 203 kts 270°
2026-05-05 20:34 44.10822 -80.62393 12015 ft 203 kts 270°
2026-05-05 20:34 44.11015 -80.64335 12016 ft 203 kts 270°
2026-05-05 20:34 44.11209 -80.66294 12017 ft 202 kts 270°
2026-05-05 20:35 44.11400 -80.68222 12020 ft 202 kts 270°
2026-05-05 20:35 44.11592 -80.70164 12024 ft 202 kts 270°
2026-05-05 20:35 44.11782 -80.72090 12019 ft 202 kts 270°
2026-05-05 20:35 44.11974 -80.74039 12020 ft 202 kts 270°
2026-05-05 20:36 44.12164 -80.75980 12021 ft 202 kts 270°
2026-05-05 20:36 44.12352 -80.77894 12020 ft 202 kts 270°
2026-05-05 20:36 44.12541 -80.79838 12019 ft 202 kts 269°
2026-05-05 20:36 44.12652 -80.81757 12021 ft 198 kts 266°
2026-05-05 20:37 44.12742 -80.83658 11825 ft 196 kts 267°
2026-05-05 20:37 44.12852 -80.85560 11562 ft 198 kts 268°
2026-05-05 20:37 44.12969 -80.87465 11294 ft 199 kts 268°
2026-05-05 20:37 44.13088 -80.89403 11022 ft 200 kts 268°
2026-05-05 20:38 44.13205 -80.91337 10756 ft 200 kts 268°
2026-05-05 20:38 44.13320 -80.93252 10498 ft 201 kts 268°
2026-05-05 20:38 44.13436 -80.95193 10235 ft 201 kts 268°
2026-05-05 20:38 44.13553 -80.97143 9971 ft 201 kts 269°
2026-05-05 20:39 44.13667 -80.99069 9712 ft 201 kts 269°
2026-05-05 20:39 44.13783 -81.01010 9428 ft 201 kts 269°
2026-05-05 20:39 44.13896 -81.02935 9145 ft 202 kts 269°
2026-05-05 20:39 44.14012 -81.04903 8852 ft 203 kts 270°
2026-05-05 20:40 44.14129 -81.06876 8563 ft 205 kts 271°
2026-05-05 20:40 44.14244 -81.08839 8277 ft 206 kts 271°
2026-05-05 20:40 44.14362 -81.10843 7987 ft 208 kts 271°
2026-05-05 20:40 44.14480 -81.12861 7705 ft 210 kts 272°
2026-05-05 20:41 44.14597 -81.14878 7418 ft 212 kts 272°
2026-05-05 20:41 44.14717 -81.16946 7131 ft 215 kts 273°
2026-05-05 20:41 44.14838 -81.19034 6845 ft 217 kts 273°
2026-05-05 20:41 44.14959 -81.21141 6559 ft 219 kts 274°
2026-05-05 20:42 44.15081 -81.23267 6264 ft 221 kts 274°
2026-05-05 20:42 44.15204 -81.25409 5956 ft 222 kts 274°
2026-05-05 20:42 44.15326 -81.27525 5650 ft 222 kts 274°
2026-05-05 20:42 44.15448 -81.29676 5342 ft 223 kts 274°
2026-05-05 20:43 44.15571 -81.31834 5043 ft 225 kts 274°
2026-05-05 20:43 44.15694 -81.34017 4717 ft 225 kts 274°
2026-05-05 20:43 44.15816 -81.36171 4406 ft 225 kts 274°
2026-05-05 20:43 44.15938 -81.38345 4097 ft 225 kts 274°
2026-05-05 20:44 44.16060 -81.40543 3797 ft 228 kts 274°
2026-05-05 20:44 44.16183 -81.42743 3476 ft 228 kts 274°
2026-05-05 20:44 44.16305 -81.44949 3149 ft 229 kts 274°
2026-05-05 20:44 44.16427 -81.47145 2843 ft 230 kts 274°
2026-05-05 20:45 44.16674 -81.51353 2240 ft 208 kts 277°
2026-05-05 20:45 44.17168 -81.53096 1963 ft 180 kts 296°
2026-05-05 20:45 44.17738 -81.54542 1719 ft 159 kts 295°
2026-05-05 20:46 44.18224 -81.55783 1516 ft 137 kts 295°
2026-05-05 20:46 44.18650 -81.56876 1335 ft 116 kts 294°
2026-05-05 20:46 44.19011 -81.57806 1150 ft 106 kts 291°
2026-05-05 20:46 44.19352 -81.58688 1023 ft 104 kts 294°
2026-05-05 20:47 44.19698 -81.59586 880 ft 105 kts 291°
2026-05-05 20:47 44.20007 -81.60403 770 ft 81 kts 300°
2026-05-05 20:47 44.20176 -81.60813 764 ft 26 kts 294°
2026-05-05 20:47 44.20223 -81.60951 763 ft 9 kts 147°
2026-05-05 20:48 44.20177 -81.60830 764 ft 19 kts 116°
2026-05-05 20:48 44.20112 -81.60648 767 ft 23 kts 117°
2026-05-05 20:48 44.20030 -81.60430 769 ft 27 kts 121°
2026-05-05 20:48 44.19930 -81.60187 771 ft 30 kts 116°
2026-05-05 20:49 44.19853 -81.59975 773 ft 13 kts 87°
2026-05-05 20:49 44.19896 -81.59881 773 ft 12 kts 86°
2026-05-05 20:49 44.19903 -81.59812 773 ft 0 kts 120°